Regional Weather Roundup
Issued by NWS

Home | Current Version | Previous Version | Text Only | Print | Product List | Glossary On
Versions: 1 2 3 4 5 6 7 8 9 10 11 12 13 14 15 16 17 18 19 20 21 22 23 24 25 26 27 28 29 30 31 32 33 34 35 36 37 38 39 40 41 42 43 44 45 46 47 48 49 50
000
ASUS45 KCYS 302210
RWRWY

WYOMING REGIONAL WEATHER ROUNDUP
NATIONAL WEATHER SERVICE CHEYENNE WY
400 PM MDT SAT AUG 30 2014

NOTE:  "FAIR" INDICATES FEW OR NO CLOUDS BELOW 12,000 FEET
WITH NO SIGNIFICANT WEATHER AND/OR OBSTRUCTIONS TO VISIBILITY.

WYZ001-302300-
YELLOWSTONE NATIONAL PARK

CITY           SKY/WX    TMP DP  RH WIND       PRES   REMARKS
LK YELLOWSTONE   N/A     42  40  92 NW6       30.09F
W YELLOWSTONE  NOT AVBL

$$
WYZ002>013-054>058-071-098>099-302300-
NORTHERN WYOMING

CITY           SKY/WX    TMP DP  RH WIND       PRES   REMARKS
JACKSON        CLOUDY    61  46  59 CALM      30.01R
CODY           CLOUDY    57  52  82 SW6       29.93R THUNDER
GREYBULL       LGT RAIN  62  54  74 N18G28    29.81F
WORLAND        CLOUDY    69  47  45 N20G36    29.78R
SHERIDAN       CLOUDY    66  51  58 NW38G51   29.84R THUNDER
BUFFALO        CLOUDY    70  49  47 N20G28    29.83R
GILLETTE       MOSUNNY   79  51  37 N16       29.73F
HULETT         FAIR      82  54  36 MISG      29.73
NEWCASTLE      FAIR      82  43  24 MISG      29.72

$$
WYZ014>020-022>026-101>103-302300-
CENTRAL WYOMING

CITY           SKY/WX    TMP DP  RH WIND       PRES   REMARKS
BIG PINEY      CLOUDY    64  38  38 W15       30.05F
PINEDALE       CLOUDY    63  32  31 S13G21    30.06F
DUBOIS         FAIR      59  45  58 N9G20     29.95F
LANDER         CLOUDY    69  38  32 W24G39    29.92R
RIVERTON       CLOUDY    75  32  20 SW33      29.85R
CASPER         PTSUNNY   82  30  15 W23G36    29.84R
DOUGLAS        MOSUNNY   87  37  17 W26G35    29.79F

$$
WYZ021-027>030-104>119-302300-
SOUTHERN WYOMING

CITY           SKY/WX    TMP DP  RH WIND       PRES   REMARKS
EVANSTON       MOSUNNY   68  42  38 SW18G25   30.08F
KEMMERER       CLOUDY    66  37  34 SW18G28   30.09F
ROCK SPRINGS   LGT RAIN  59  46  62 VRB5G23   30.11R
DIXON          FAIR      74  39  28 W25G35    30.08S
RAWLINS        LGT RAIN  63  44  50 W24G38    30.05S
LARAMIE        LGT RAIN  62  46  55 S12G40    30.07R
CHEYENNE       MOSUNNY   81  41  24 S17G26    29.96F
TORRINGTON     MOSUNNY   90  48  23 SE8       29.76F
PINE BLUFFS    FAIR      86  36  16 S9        29.89F

$$



USA.gov is the U.S. government's official web portal to all federal, state and local government web resources and services.